This is the latest recevied weather packets stored in our database for station/object KA9CBS. If no packets are shown the sender has not sent any weather packets the latest 10 day(s).
| Time | Temp. | Humidity | Pressure | Rain* | Wind** | Luminosity | Snow |
|---|---|---|---|---|---|---|---|
| 1787700401 | 28.89° C | 65% | 1017.9 hPa | 0 mm | - | 41 W/m² | - |
| 1787700097 | 28.89° C | 64% | 1018.1 hPa | 0 mm | - | 45 W/m² | - |
| 1787699793 | 28.89° C | 63% | 1018.1 hPa | 0 mm | - | 46 W/m² | - |
| 1787699488 | 28.89° C | 61% | 1018.2 hPa | 0 mm | - | 52 W/m² | - |
| 1787699184 | 28.89° C | 61% | 1017.8 hPa | 0 mm | - | 49 W/m² | - |
| 1787698880 | 28.89° C | 61% | 1018.2 hPa | 0 mm | - | 51 W/m² | - |
| 1787698574 | 29.44° C | 62% | 1018.1 hPa | 0 mm | - | 66 W/m² | - |
| 1787698271 | 29.44° C | 60% | 1018.1 hPa | 0 mm | - | 61 W/m² | - |
| 1787697966 | 29.44° C | 60% | 1018 hPa | 0 mm | - | 55 W/m² | - |
| 1787697666 | 29.44° C | 60% | 1018 hPa | 0 mm | - | 57 W/m² | - |
| 1787697362 | 29.44° C | 59% | 1017.9 hPa | 0 mm | - | 58 W/m² | - |
| 1787697057 | 29.44° C | 60% | 1018.1 hPa | 0 mm | - | 62 W/m² | - |
| 1787696752 | 30° C | 59% | 1018.1 hPa | 0 mm | - | 63 W/m² | - |
| 1787696448 | 29.44° C | 61% | 1018 hPa | 0 mm | - | 66 W/m² | - |
| 1787696144 | 29.44° C | 58% | 1018.1 hPa | 0 mm | - | 69 W/m² | - |
| 1787695842 | 28.89° C | 58% | 1018.1 hPa | 0 mm | - | 70 W/m² | - |
| 1787695539 | 29.44° C | 62% | 1018.1 hPa | 0 mm | - | 77 W/m² | - |
| 1787695234 | 30° C | 58% | 1018.1 hPa | 0 mm | - | 288 W/m² | - |
| 1787694932 | 30.56° C | 56% | 1018.4 hPa | 0 mm | - | 349 W/m² | - |
| 1787694627 | 30° C | 55% | 1018.3 hPa | 0 mm | - | 88 W/m² | - |
| 1787694322 | 30° C | 58% | 1018.3 hPa | 0 mm | - | 124 W/m² | - |
| 1787694018 | 30° C | 56% | 1018.3 hPa | 0 mm | - | 150 W/m² | - |
| 1787693714 | 30° C | 57% | 1018.2 hPa | 0 mm | - | 133 W/m² | - |
| 1787693410 | 30° C | 57% | 1018.3 hPa | 0 mm | - | 92 W/m² | - |
| 1787693105 | 30° C | 58% | 1018.3 hPa | 0 mm | - | 96 W/m² | - |
* Rain latest hour (hover to see other rain measurements)
** Current wind speed in m/s (hover to see current wind gust speed)